Location: Newark
(49.3667°N, 21.6167°E)
Time: 05:07:11
(UTC+00:00)

Envisat - Visible Passes

Search period start: 08 December 2019 00:00
Search period end: 18 December 2019 00:00
Orbit: 764 x 766 km, 98.1° (Epoch: 07 December)

Date Brightness Start Highest point End Pass type
(mag) Time Alt. Az. Time Alt. Az. Time Alt. Az.
08 Dec 5.8 04:15:47 10° NE 04:19:24 19° E 04:22:58 10° SE visible
08 Dec 3.5 15:34:05 10° SE 15:38:45 38° ENE 15:43:25 10° N visible
08 Dec 4.6 17:13:13 10° SSW 17:17:49 34° W 17:22:26 10° NNW visible
09 Dec 3.6 05:17:03 10° NNE 05:22:07 62° ESE 05:27:08 10° S visible
09 Dec 3.3 16:35:48 10° S 16:40:52 69° WSW 16:45:58 10° NNW visible
10 Dec 5.0 04:40:38 10° NNE 04:45:09 31° E 04:49:37 10° SSE visible
10 Dec 3.0 15:59:07 10° SSE 16:04:06 61° ENE 16:09:07 10° N visible
10 Dec 5.4 17:39:45 10° SW 17:43:33 21° W 17:47:22 10° NW visible
11 Dec 6.0 04:04:58 10° NE 04:07:58 15° E 04:10:56 10° ESE visible
11 Dec 3.7 15:23:06 10° SE 15:27:32 32° ENE 15:32:00 10° N visible
11 Dec 4.3 17:01:40 10° SSW 17:06:28 41° W 17:11:17 10° NNW visible
12 Dec 4.0 05:05:50 10° NNE 05:10:48 50° E 05:15:44 10° S visible
12 Dec 3.0 16:24:28 10° SSE 16:29:34 84° WSW 16:34:41 10° NNW visible
12 Dec 6.1 18:07:13 10° WSW 18:09:23 13° W 18:11:34 10° WNW visible
13 Dec 5.4 04:29:34 10° NE 04:33:46 25° E 04:37:56 10° SSE visible
13 Dec 3.2 15:47:59 10° SE 15:52:52 50° ENE 15:57:47 10° N visible
13 Dec 5.1 17:27:58 10° SSW 17:32:09 26° W 17:36:22 10° NW visible
14 Dec 6.2 03:54:26 10° ENE 03:56:31 12° E 03:58:36 10° ESE visible
14 Dec 3.2 05:31:14 10° NNE 05:36:22 83° ESE 05:41:27 10° SSW visible
14 Dec 3.9 15:12:11 10° ESE 15:16:22 26° ENE 15:20:33 10° N visible
14 Dec 3.8 16:50:11 10° S 16:55:07 51° W 17:00:06 10° NNW visible
15 Dec 4.5 04:54:39 10° NNE 04:59:28 41° E 05:04:15 10° SSE visible
15 Dec 2.9 16:13:12 10° SSE 16:18:17 80° ENE 16:23:24 10° NNW visible
15 Dec 5.8 17:54:55 10° SW 17:57:57 16° W 18:01:00 10° NW visible
16 Dec 5.7 04:18:35 10° NE 04:22:22 21° E 04:26:08 10° SE visible
16 Dec 3.4 15:36:55 10° SE 15:41:39 41° ENE 15:46:24 10° N visible
16 Dec 4.8 17:16:17 10° SSW 17:20:46 31° W 17:25:18 10° NNW visible
17 Dec 3.5 05:19:58 10° NNE 05:25:03 67° ESE 05:30:07 10° S visible
17 Dec 3.4 16:38:46 10° S 16:43:48 63° WSW 16:48:52 10° NNW visible
